Location: Bieujac
(44.5398°N, 0.1549°W)
Time: 13:02:23
(UTC+00:00)

Cosmos 1725 Rocket - Pass Details

Date: 17 November 2019
Orbit: 962 x 990 km, 82.9° (Epoch: 15 December)

Event Time Altitude Azimuth Distance (km) Brightness Sun altitude
Rises 06:02:08 0° 199° (SSW) 3,661 7.0 -10.3°
Reaches altitude 10° 06:04:40 10° 203° (SSW) 2,722 6.3 -9.9°
Maximum altitude 06:10:49 58° 282° (WNW) 1,135 4.1 -8.8°
Drops below altitude 10° 06:17:03 10° 1° (N) 2,757 6.2 -7.8°
Sets 06:19:39 0° 6° (N) 3,712 6.9 -7.3°
